Location: Bruderhein
(53.8035°N, 112.9265°W)
Time: 05:56:12
(UTC+00:00)

First-Move - Visible Passes

Search period start: 24 April 2024 00:00
Search period end: 04 May 2024 00:00
Orbit: 540 x 605 km, 97.7° (Epoch: 23 April)

Date Brightness Start Highest point End Pass type
(mag) Time Alt. Az. Time Alt. Az. Time Alt. Az.
24 Apr ? 10:25:18 10° NNE 10:29:08 31° E 10:32:57 10° SSE visible
25 Apr ? 10:27:55 10° NNE 10:31:49 33° E 10:35:41 10° SSE visible
26 Apr ? 10:30:30 10° NNE 10:34:26 35° E 10:38:20 10° SSE visible
27 Apr ? 10:33:01 10° NNE 10:37:00 36° E 10:40:57 10° SSE visible
28 Apr ? 10:35:29 10° NNE 10:39:30 38° E 10:43:29 10° SSE visible
29 Apr ? 10:37:54 10° NNE 10:41:57 40° E 10:45:58 10° SSE visible
30 Apr ? 10:40:16 10° NNE 10:44:20 42° E 10:48:23 10° S visible
01 May ? 10:42:34 10° NNE 10:46:41 44° E 10:50:44 10° S visible
02 May ? 10:44:49 10° NNE 10:48:57 46° E 10:53:02 10° S visible
03 May ? 10:47:01 10° NNE 10:51:11 49° E 10:55:17 10° S visible
